Location: Table Mountain
(47.2500°N, 120.5778°W)
Time: 08:12:29
(UTC-07:00)

Vanguard 1 - Visible Passes

Search period start: 17 October 2017 00:00
Search period end: 27 October 2017 00:00
Orbit: 650 x 3834 km, 34.3° (Epoch: 15 October)

Date Brightness Start Highest point End Pass type
(mag) Time Alt. Az. Time Alt. Az. Time Alt. Az.
17 Oct 13.1 01:56:28 39° SE 01:56:28 39° SE 02:12:37 10° E visible
17 Oct 12.7 04:09:11 44° SW 04:16:18 57° S 04:38:44 10° ESE visible
17 Oct 13.3 06:21:53 12° W 06:41:26 50° SSW 07:01:34 10° SE visible
18 Oct 13.9 00:03:31 12° E 00:03:31 12° E 00:05:15 10° E visible
18 Oct 12.9 02:16:14 45° SE 02:16:14 45° SE 02:34:13 10° E visible
18 Oct 12.7 04:28:56 40° SW 04:37:29 57° S 04:59:52 10° ESE visible
18 Oct 13.4 06:42:21 10° W 07:02:24 45° SSW 07:21:55 10° SE visible
19 Oct 13.8 00:23:18 17° E 00:23:18 17° E 00:27:40 10° E visible
19 Oct 12.8 02:36:00 50° SSE 02:36:00 50° SSE 02:55:42 10° E visible
19 Oct 12.8 04:48:43 35° WSW 04:58:41 55° S 05:20:51 10° ESE visible
20 Oct 13.6 00:43:05 21° E 00:43:05 21° E 00:49:42 10° E visible
20 Oct 12.6 02:55:48 53° SSE 02:55:48 53° SSE 03:17:06 10° E visible
20 Oct 12.9 05:08:30 30° WSW 05:19:50 53° SSW 05:41:41 10° SE visible
21 Oct 13.4 01:02:54 26° ESE 01:02:54 26° ESE 01:11:29 10° E visible
21 Oct 12.6 03:15:37 55° S 03:16:14 55° S 03:38:25 10° ESE visible
21 Oct 13.0 05:28:20 26° WSW 05:40:56 49° SSW 06:02:18 10° SE visible
22 Oct 13.3 01:22:45 30° ESE 01:22:45 30° ESE 01:33:07 10° E visible
22 Oct 12.5 03:35:28 54° SSW 03:37:22 55° S 03:59:37 10° ESE visible
22 Oct 13.1 05:48:11 21° W 06:01:58 44° SSW 06:22:40 10° SE visible
23 Oct 13.1 01:42:38 35° ESE 01:42:38 35° ESE 01:54:39 10° E visible
23 Oct 12.5 03:55:21 50° SSW 03:58:31 53° S 04:20:40 10° ESE visible
23 Oct 13.3 06:08:04 17° W 06:22:53 39° SSW 06:42:43 10° SSE visible
24 Oct 13.0 02:02:33 39° SE 02:02:33 39° SE 02:16:06 10° ESE visible
24 Oct 12.6 04:15:16 46° SW 04:19:40 51° SSW 04:41:32 10° SE visible
24 Oct 13.4 06:28:00 13° W 06:43:41 33° SW 07:02:21 10° SSE visible
25 Oct 13.9 00:09:46 11° E 00:09:46 11° E 00:10:14 10° E visible
25 Oct 12.9 02:22:30 43° SE 02:22:30 43° SE 02:37:28 10° ESE visible
25 Oct 12.7 04:35:14 40° SW 04:40:47 47° SSW 05:02:11 10° SE visible
25 Oct 13.5 06:48:46 10° W 07:04:25 27° SW 07:21:27 10° S visible
26 Oct 13.8 00:29:46 14° E 00:29:46 14° E 00:31:52 10° E visible
26 Oct 12.8 02:42:29 46° SSE 02:42:29 46° SSE 02:58:42 10° ESE visible
26 Oct 12.8 04:55:13 35° WSW 05:01:50 42° SSW 05:22:33 10° SE visible
